<?xml version="1.0" encoding="UTF-8" standalone="no" ?>
<gpx xmlns="http://www.topografix.com/GPX/1/1" xmlns:xsi="http://www.w3.org/2001/XMLSchema-instance" xsi:schemaLocation="http://www.topografix.com/GPX/1/1 http://www.topografix.com/GPX/1/1/gpx.xsd" version="1.1" creator="VisuGPX - https://www.visugpx.com">
  <metadata>
    <name>Transgabatxie-jour01</name>
    <desc><![CDATA[Premier de trois jours de trip en VTT entre Carcassonne et Saint-Paul de Fenouillet. ]]></desc>
  </metadata>
  <trk>
    <name><![CDATA[transgabatxie-jour01]]></name>
    <trkseg>
      <trkpt lat="43.21807" lon="2.35198">
        <ele>112.3</ele>
        <time>2018-02-23T19:06:02Z</time>
      </trkpt>
      <trkpt lat="43.21728" lon="2.35202">
        <ele>110.4</ele>
        <time>2018-02-23T19:06:02Z</time>
      </trkpt>
      <trkpt lat="43.2176" lon="2.35358">
        <ele>107.8</ele>
        <time>2018-02-23T19:06:02Z</time>
      </trkpt>
      <trkpt lat="43.21672" lon="2.35374">
        <ele>106.6</ele>
        <time>2018-02-23T19:06:02Z</time>
      </trkpt>
      <trkpt lat="43.21306" lon="2.35566">
        <ele>107.8</ele>
        <time>2018-02-23T19:06:02Z</time>
      </trkpt>
      <trkpt lat="43.21178" lon="2.35558">
        <ele>108.4</ele>
        <time>2018-02-23T19:06:02Z</time>
      </trkpt>
      <trkpt lat="43.21064" lon="2.3575">
        <ele>106.8</ele>
        <time>2018-02-23T19:06:02Z</time>
      </trkpt>
      <trkpt lat="43.20973" lon="2.36105">
        <ele>105</ele>
        <time>2018-02-23T19:06:02Z</time>
      </trkpt>
      <trkpt lat="43.209" lon="2.36229">
        <ele>106.4</ele>
        <time>2018-02-23T19:06:02Z</time>
      </trkpt>
      <trkpt lat="43.20903" lon="2.36381">
        <ele>107.2</ele>
        <time>2018-02-23T19:06:02Z</time>
      </trkpt>
      <trkpt lat="43.20818" lon="2.36609">
        <ele>119.6</ele>
        <time>2018-02-23T19:06:02Z</time>
      </trkpt>
      <trkpt lat="43.20569" lon="2.36677">
        <ele>136.1</ele>
        <time>2018-02-23T19:06:02Z</time>
      </trkpt>
      <trkpt lat="43.20493" lon="2.36565">
        <ele>145.4</ele>
        <time>2018-02-23T19:06:02Z</time>
      </trkpt>
      <trkpt lat="43.20438" lon="2.36585">
        <ele>145.6</ele>
        <time>2018-02-23T19:06:02Z</time>
      </trkpt>
      <trkpt lat="43.20391" lon="2.36801">
        <ele>153.8</ele>
        <time>2018-02-23T19:06:02Z</time>
      </trkpt>
      <trkpt lat="43.20326" lon="2.36937">
        <ele>154.5</ele>
        <time>2018-02-23T19:06:02Z</time>
      </trkpt>
      <trkpt lat="43.20212" lon="2.37081">
        <ele>159.3</ele>
        <time>2018-02-23T19:06:02Z</time>
      </trkpt>
      <trkpt lat="43.20092" lon="2.37057">
        <ele>159.1</ele>
        <time>2018-02-23T19:06:02Z</time>
      </trkpt>
      <trkpt lat="43.19969" lon="2.37436">
        <ele>177</ele>
        <time>2018-02-23T19:06:02Z</time>
      </trkpt>
      <trkpt lat="43.19779" lon="2.3794">
        <ele>187.9</ele>
        <time>2018-02-23T19:06:02Z</time>
      </trkpt>
      <trkpt lat="43.19744" lon="2.38076">
        <ele>193</ele>
        <time>2018-02-23T19:06:02Z</time>
      </trkpt>
      <trkpt lat="43.19489" lon="2.38343">
        <ele>233.2</ele>
        <time>2018-02-23T19:06:02Z</time>
      </trkpt>
      <trkpt lat="43.19191" lon="2.38731">
        <ele>252.1</ele>
        <time>2018-02-23T19:06:02Z</time>
      </trkpt>
      <trkpt lat="43.18992" lon="2.38943">
        <ele>242.1</ele>
        <time>2018-02-23T19:06:02Z</time>
      </trkpt>
      <trkpt lat="43.18924" lon="2.3929">
        <ele>218.4</ele>
        <time>2018-02-23T19:06:02Z</time>
      </trkpt>
      <trkpt lat="43.18936" lon="2.39754">
        <ele>198.9</ele>
        <time>2018-02-23T19:06:02Z</time>
      </trkpt>
      <trkpt lat="43.18983" lon="2.39858">
        <ele>191.4</ele>
        <time>2018-02-23T19:06:02Z</time>
      </trkpt>
      <trkpt lat="43.18851" lon="2.39982">
        <ele>199.5</ele>
        <time>2018-02-23T19:06:02Z</time>
      </trkpt>
      <trkpt lat="43.18848" lon="2.40214">
        <ele>204.1</ele>
        <time>2018-02-23T19:06:02Z</time>
      </trkpt>
      <trkpt lat="43.18681" lon="2.40337">
        <ele>202.2</ele>
        <time>2018-02-23T19:06:02Z</time>
      </trkpt>
      <trkpt lat="43.18719" lon="2.40645">
        <ele>189.9</ele>
        <time>2018-02-23T19:06:02Z</time>
      </trkpt>
      <trkpt lat="43.18593" lon="2.41057">
        <ele>168.1</ele>
        <time>2018-02-23T19:06:02Z</time>
      </trkpt>
      <trkpt lat="43.18429" lon="2.41292">
        <ele>158.3</ele>
        <time>2018-02-23T19:06:02Z</time>
      </trkpt>
      <trkpt lat="43.18335" lon="2.41356">
        <ele>160.6</ele>
        <time>2018-02-23T19:06:02Z</time>
      </trkpt>
      <trkpt lat="43.1835" lon="2.41568">
        <ele>162</ele>
        <time>2018-02-23T19:06:02Z</time>
      </trkpt>
      <trkpt lat="43.18303" lon="2.41656">
        <ele>161.3</ele>
        <time>2018-02-23T19:06:02Z</time>
      </trkpt>
      <trkpt lat="43.18218" lon="2.41636">
        <ele>154.7</ele>
        <time>2018-02-23T19:06:02Z</time>
      </trkpt>
      <trkpt lat="43.18136" lon="2.4156">
        <ele>151.4</ele>
        <time>2018-02-23T19:06:02Z</time>
      </trkpt>
      <trkpt lat="43.17972" lon="2.41691">
        <ele>143.8</ele>
        <time>2018-02-23T19:06:02Z</time>
      </trkpt>
      <trkpt lat="43.17931" lon="2.41759">
        <ele>145.9</ele>
        <time>2018-02-23T19:06:02Z</time>
      </trkpt>
      <trkpt lat="43.17808" lon="2.41795">
        <ele>148.6</ele>
        <time>2018-02-23T19:06:02Z</time>
      </trkpt>
      <trkpt lat="43.17832" lon="2.41863">
        <ele>151.7</ele>
        <time>2018-02-23T19:06:02Z</time>
      </trkpt>
      <trkpt lat="43.17902" lon="2.41887">
        <ele>159.1</ele>
        <time>2018-02-23T19:06:02Z</time>
      </trkpt>
      <trkpt lat="43.18063" lon="2.41767">
        <ele>144.6</ele>
        <time>2018-02-23T19:06:02Z</time>
      </trkpt>
      <trkpt lat="43.18162" lon="2.41831">
        <ele>140.4</ele>
        <time>2018-02-23T19:06:02Z</time>
      </trkpt>
      <trkpt lat="43.18098" lon="2.42063">
        <ele>147.1</ele>
        <time>2018-02-23T19:06:02Z</time>
      </trkpt>
      <trkpt lat="43.18066" lon="2.42187">
        <ele>150.5</ele>
        <time>2018-02-23T19:06:02Z</time>
      </trkpt>
      <trkpt lat="43.18126" lon="2.4216">
        <ele>146</ele>
        <time>2018-02-23T19:06:02Z</time>
      </trkpt>
      <trkpt lat="43.18109" lon="2.42239">
        <ele>147.1</ele>
        <time>2018-02-23T19:06:02Z</time>
      </trkpt>
      <trkpt lat="43.18045" lon="2.42358">
        <ele>150.7</ele>
        <time>2018-02-23T19:06:02Z</time>
      </trkpt>
      <trkpt lat="43.17966" lon="2.42532">
        <ele>150.7</ele>
        <time>2018-02-23T19:06:02Z</time>
      </trkpt>
      <trkpt lat="43.1786" lon="2.42594">
        <ele>153.8</ele>
        <time>2018-02-23T19:06:02Z</time>
      </trkpt>
      <trkpt lat="43.17729" lon="2.42723">
        <ele>161.8</ele>
        <time>2018-02-23T19:06:02Z</time>
      </trkpt>
      <trkpt lat="43.17661" lon="2.42717">
        <ele>161.9</ele>
        <time>2018-02-23T19:06:02Z</time>
      </trkpt>
      <trkpt lat="43.1765" lon="2.42801">
        <ele>164.1</ele>
        <time>2018-02-23T19:06:02Z</time>
      </trkpt>
      <trkpt lat="43.1759" lon="2.4286">
        <ele>165.2</ele>
        <time>2018-02-23T19:06:02Z</time>
      </trkpt>
      <trkpt lat="43.17562" lon="2.43061">
        <ele>169</ele>
        <time>2018-02-23T19:06:02Z</time>
      </trkpt>
      <trkpt lat="43.17461" lon="2.4316">
        <ele>175.1</ele>
        <time>2018-02-23T19:06:02Z</time>
      </trkpt>
      <trkpt lat="43.17428" lon="2.43286">
        <ele>175.8</ele>
        <time>2018-02-23T19:06:02Z</time>
      </trkpt>
      <trkpt lat="43.17368" lon="2.43499">
        <ele>188.9</ele>
        <time>2018-02-23T19:06:02Z</time>
      </trkpt>
      <trkpt lat="43.17205" lon="2.44041">
        <ele>205.9</ele>
        <time>2018-02-23T19:06:02Z</time>
      </trkpt>
      <trkpt lat="43.17044" lon="2.44203">
        <ele>206.3</ele>
        <time>2018-02-23T19:06:02Z</time>
      </trkpt>
      <trkpt lat="43.16877" lon="2.4446">
        <ele>189.7</ele>
        <time>2018-02-23T19:06:02Z</time>
      </trkpt>
      <trkpt lat="43.1673" lon="2.44498">
        <ele>199.5</ele>
        <time>2018-02-23T19:06:02Z</time>
      </trkpt>
      <trkpt lat="43.16618" lon="2.44621">
        <ele>210</ele>
        <time>2018-02-23T19:06:02Z</time>
      </trkpt>
      <trkpt lat="43.16444" lon="2.44564">
        <ele>194</ele>
        <time>2018-02-23T19:06:02Z</time>
      </trkpt>
      <trkpt lat="43.16311" lon="2.44802">
        <ele>174.2</ele>
        <time>2018-02-23T19:06:02Z</time>
      </trkpt>
      <trkpt lat="43.16346" lon="2.44992">
        <ele>180</ele>
        <time>2018-02-23T19:06:02Z</time>
      </trkpt>
      <trkpt lat="43.16227" lon="2.44897">
        <ele>187.5</ele>
        <time>2018-02-23T19:06:02Z</time>
      </trkpt>
      <trkpt lat="43.16102" lon="2.44687">
        <ele>185.8</ele>
        <time>2018-02-23T19:06:02Z</time>
      </trkpt>
      <trkpt lat="43.15955" lon="2.44725">
        <ele>210.9</ele>
        <time>2018-02-23T19:06:02Z</time>
      </trkpt>
      <trkpt lat="43.15962" lon="2.44734">
        <ele>207.8</ele>
        <time>2018-02-23T19:06:02Z</time>
      </trkpt>
      <trkpt lat="43.15829" lon="2.45134">
        <ele>172.5</ele>
        <time>2018-02-23T19:06:02Z</time>
      </trkpt>
      <trkpt lat="43.15767" lon="2.45182">
        <ele>175.6</ele>
        <time>2018-02-23T19:06:02Z</time>
      </trkpt>
      <trkpt lat="43.15822" lon="2.45354">
        <ele>149.1</ele>
        <time>2018-02-23T19:06:02Z</time>
      </trkpt>
      <trkpt lat="43.15585" lon="2.45658">
        <ele>144.4</ele>
        <time>2018-02-23T19:06:02Z</time>
      </trkpt>
      <trkpt lat="43.15584" lon="2.45868">
        <ele>151.6</ele>
        <time>2018-02-23T19:06:02Z</time>
      </trkpt>
      <trkpt lat="43.155" lon="2.46172">
        <ele>178.5</ele>
        <time>2018-02-23T19:06:02Z</time>
      </trkpt>
      <trkpt lat="43.15503" lon="2.4642">
        <ele>197.5</ele>
        <time>2018-02-23T19:06:02Z</time>
      </trkpt>
      <trkpt lat="43.15622" lon="2.46633">
        <ele>219.8</ele>
        <time>2018-02-23T19:06:02Z</time>
      </trkpt>
      <trkpt lat="43.1569" lon="2.4664">
        <ele>227</ele>
        <time>2018-02-23T19:06:02Z</time>
      </trkpt>
      <trkpt lat="43.1582" lon="2.46875">
        <ele>252.9</ele>
        <time>2018-02-23T19:06:02Z</time>
      </trkpt>
      <trkpt lat="43.15736" lon="2.47629">
        <ele>279.7</ele>
        <time>2018-02-23T19:06:02Z</time>
      </trkpt>
      <trkpt lat="43.15751" lon="2.48112">
        <ele>293.8</ele>
        <time>2018-02-23T19:06:02Z</time>
      </trkpt>
      <trkpt lat="43.15714" lon="2.4834">
        <ele>298.2</ele>
        <time>2018-02-23T19:06:02Z</time>
      </trkpt>
      <trkpt lat="43.1575" lon="2.48567">
        <ele>311.8</ele>
        <time>2018-02-23T19:06:02Z</time>
      </trkpt>
      <trkpt lat="43.1588" lon="2.48816">
        <ele>339.1</ele>
        <time>2018-02-23T19:06:02Z</time>
      </trkpt>
      <trkpt lat="43.15911" lon="2.49065">
        <ele>351.4</ele>
        <time>2018-02-23T19:06:02Z</time>
      </trkpt>
      <trkpt lat="43.16025" lon="2.49321">
        <ele>367</ele>
        <time>2018-02-23T19:06:02Z</time>
      </trkpt>
      <trkpt lat="43.15952" lon="2.4952">
        <ele>361.7</ele>
        <time>2018-02-23T19:06:02Z</time>
      </trkpt>
      <trkpt lat="43.15931" lon="2.49677">
        <ele>368.1</ele>
        <time>2018-02-23T19:06:02Z</time>
      </trkpt>
      <trkpt lat="43.1608" lon="2.50381">
        <ele>429.7</ele>
        <time>2018-02-23T19:06:02Z</time>
      </trkpt>
      <trkpt lat="43.16153" lon="2.50289">
        <ele>426.4</ele>
        <time>2018-02-23T19:06:02Z</time>
      </trkpt>
      <trkpt lat="43.16226" lon="2.50566">
        <ele>468.6</ele>
        <time>2018-02-23T19:06:02Z</time>
      </trkpt>
      <trkpt lat="43.16341" lon="2.50353">
        <ele>465</ele>
        <time>2018-02-23T19:06:02Z</time>
      </trkpt>
      <trkpt lat="43.16388" lon="2.49841">
        <ele>421.7</ele>
        <time>2018-02-23T19:06:02Z</time>
      </trkpt>
      <trkpt lat="43.16466" lon="2.49763">
        <ele>398.1</ele>
        <time>2018-02-23T19:06:02Z</time>
      </trkpt>
      <trkpt lat="43.16581" lon="2.49778">
        <ele>410.3</ele>
        <time>2018-02-23T19:06:02Z</time>
      </trkpt>
      <trkpt lat="43.16711" lon="2.49636">
        <ele>372.5</ele>
        <time>2018-02-23T19:06:02Z</time>
      </trkpt>
      <trkpt lat="43.16847" lon="2.49651">
        <ele>353.4</ele>
        <time>2018-02-23T19:06:02Z</time>
      </trkpt>
      <trkpt lat="43.16935" lon="2.4958">
        <ele>325.1</ele>
        <time>2018-02-23T19:06:02Z</time>
      </trkpt>
      <trkpt lat="43.16924" lon="2.498">
        <ele>333</ele>
        <time>2018-02-23T19:06:02Z</time>
      </trkpt>
      <trkpt lat="43.16752" lon="2.50454">
        <ele>373.7</ele>
        <time>2018-02-23T19:06:02Z</time>
      </trkpt>
      <trkpt lat="43.16756" lon="2.50817">
        <ele>386.9</ele>
        <time>2018-02-23T19:06:02Z</time>
      </trkpt>
      <trkpt lat="43.16652" lon="2.51207">
        <ele>375.5</ele>
        <time>2018-02-23T19:06:02Z</time>
      </trkpt>
      <trkpt lat="43.16604" lon="2.51577">
        <ele>376.5</ele>
        <time>2018-02-23T19:06:02Z</time>
      </trkpt>
      <trkpt lat="43.1662" lon="2.51691">
        <ele>374.5</ele>
        <time>2018-02-23T19:06:02Z</time>
      </trkpt>
      <trkpt lat="43.16573" lon="2.51866">
        <ele>357.7</ele>
        <time>2018-02-23T19:06:02Z</time>
      </trkpt>
      <trkpt lat="43.16538" lon="2.51869">
        <ele>362.7</ele>
        <time>2018-02-23T19:06:02Z</time>
      </trkpt>
      <trkpt lat="43.16437" lon="2.52053">
        <ele>345.1</ele>
        <time>2018-02-23T19:06:02Z</time>
      </trkpt>
      <trkpt lat="43.16468" lon="2.52231">
        <ele>310.6</ele>
        <time>2018-02-23T19:06:02Z</time>
      </trkpt>
      <trkpt lat="43.16452" lon="2.52387">
        <ele>300.7</ele>
        <time>2018-02-23T19:06:02Z</time>
      </trkpt>
      <trkpt lat="43.16306" lon="2.52593">
        <ele>300.5</ele>
        <time>2018-02-23T19:06:02Z</time>
      </trkpt>
      <trkpt lat="43.16243" lon="2.52742">
        <ele>298.4</ele>
        <time>2018-02-23T19:06:02Z</time>
      </trkpt>
      <trkpt lat="43.16316" lon="2.52934">
        <ele>356</ele>
        <time>2018-02-23T19:06:02Z</time>
      </trkpt>
      <trkpt lat="43.16295" lon="2.53012">
        <ele>379.9</ele>
        <time>2018-02-23T19:06:02Z</time>
      </trkpt>
      <trkpt lat="43.16331" lon="2.53069">
        <ele>387.5</ele>
        <time>2018-02-23T19:06:02Z</time>
      </trkpt>
      <trkpt lat="43.16246" lon="2.53744">
        <ele>447.6</ele>
        <time>2018-02-23T19:06:02Z</time>
      </trkpt>
      <trkpt lat="43.16308" lon="2.5408">
        <ele>424</ele>
        <time>2018-02-23T19:06:02Z</time>
      </trkpt>
      <trkpt lat="43.16281" lon="2.54243">
        <ele>418.4</ele>
        <time>2018-02-23T19:06:02Z</time>
      </trkpt>
      <trkpt lat="43.16226" lon="2.54568">
        <ele>392.3</ele>
        <time>2018-02-23T19:06:02Z</time>
      </trkpt>
      <trkpt lat="43.1624" lon="2.54876">
        <ele>364.5</ele>
        <time>2018-02-23T19:06:02Z</time>
      </trkpt>
      <trkpt lat="43.16093" lon="2.54959">
        <ele>355.8</ele>
        <time>2018-02-23T19:06:02Z</time>
      </trkpt>
      <trkpt lat="43.15932" lon="2.5508">
        <ele>346.4</ele>
        <time>2018-02-23T19:06:02Z</time>
      </trkpt>
      <trkpt lat="43.15879" lon="2.55392">
        <ele>333.4</ele>
        <time>2018-02-23T19:06:02Z</time>
      </trkpt>
      <trkpt lat="43.15925" lon="2.55698">
        <ele>324.2</ele>
        <time>2018-02-23T19:06:02Z</time>
      </trkpt>
      <trkpt lat="43.15914" lon="2.5584">
        <ele>319.7</ele>
        <time>2018-02-23T19:06:02Z</time>
      </trkpt>
      <trkpt lat="43.15711" lon="2.56017">
        <ele>325.4</ele>
        <time>2018-02-23T19:06:02Z</time>
      </trkpt>
      <trkpt lat="43.1569" lon="2.56223">
        <ele>327.8</ele>
        <time>2018-02-23T19:06:02Z</time>
      </trkpt>
      <trkpt lat="43.15773" lon="2.56487">
        <ele>323.7</ele>
        <time>2018-02-23T19:06:02Z</time>
      </trkpt>
      <trkpt lat="43.15683" lon="2.56821">
        <ele>317.5</ele>
        <time>2018-02-23T19:06:02Z</time>
      </trkpt>
      <trkpt lat="43.15667" lon="2.5697">
        <ele>309.2</ele>
        <time>2018-02-23T19:06:02Z</time>
      </trkpt>
      <trkpt lat="43.1575" lon="2.57155">
        <ele>300</ele>
        <time>2018-02-23T19:06:02Z</time>
      </trkpt>
      <trkpt lat="43.15859" lon="2.57554">
        <ele>273.7</ele>
        <time>2018-02-23T19:06:02Z</time>
      </trkpt>
      <trkpt lat="43.15983" lon="2.57938">
        <ele>247.8</ele>
        <time>2018-02-23T19:06:02Z</time>
      </trkpt>
      <trkpt lat="43.15811" lon="2.57937">
        <ele>265.8</ele>
        <time>2018-02-23T19:06:02Z</time>
      </trkpt>
      <trkpt lat="43.15629" lon="2.58022">
        <ele>283.3</ele>
        <time>2018-02-23T19:06:02Z</time>
      </trkpt>
      <trkpt lat="43.15618" lon="2.58192">
        <ele>284.2</ele>
        <time>2018-02-23T19:06:02Z</time>
      </trkpt>
      <trkpt lat="43.15566" lon="2.58213">
        <ele>294.2</ele>
        <time>2018-02-23T19:06:02Z</time>
      </trkpt>
      <trkpt lat="43.1557" lon="2.58498">
        <ele>312.5</ele>
        <time>2018-02-23T19:06:02Z</time>
      </trkpt>
      <trkpt lat="43.15429" lon="2.58739">
        <ele>343.7</ele>
        <time>2018-02-23T19:06:02Z</time>
      </trkpt>
      <trkpt lat="43.15246" lon="2.59378">
        <ele>372.3</ele>
        <time>2018-02-23T19:06:02Z</time>
      </trkpt>
      <trkpt lat="43.15261" lon="2.59463">
        <ele>371.1</ele>
        <time>2018-02-23T19:06:02Z</time>
      </trkpt>
      <trkpt lat="43.15156" lon="2.59733">
        <ele>382.1</ele>
        <time>2018-02-23T19:06:02Z</time>
      </trkpt>
      <trkpt lat="43.15115" lon="2.59768">
        <ele>385.8</ele>
        <time>2018-02-23T19:06:02Z</time>
      </trkpt>
      <trkpt lat="43.15062" lon="2.59868">
        <ele>391.2</ele>
        <time>2018-02-23T19:06:02Z</time>
      </trkpt>
      <trkpt lat="43.15062" lon="2.59974">
        <ele>393.6</ele>
        <time>2018-02-23T19:06:02Z</time>
      </trkpt>
      <trkpt lat="43.14925" lon="2.60521">
        <ele>429.8</ele>
        <time>2018-02-23T19:06:02Z</time>
      </trkpt>
      <trkpt lat="43.1493" lon="2.60628">
        <ele>433.8</ele>
        <time>2018-02-23T19:06:02Z</time>
      </trkpt>
      <trkpt lat="43.14669" lon="2.61152">
        <ele>494</ele>
        <time>2018-02-23T19:06:02Z</time>
      </trkpt>
      <trkpt lat="43.1459" lon="2.61493">
        <ele>537.2</ele>
        <time>2018-02-23T19:06:02Z</time>
      </trkpt>
      <trkpt lat="43.14573" lon="2.61763">
        <ele>553.2</ele>
        <time>2018-02-23T19:06:02Z</time>
      </trkpt>
      <trkpt lat="43.14505" lon="2.6204">
        <ele>576.6</ele>
        <time>2018-02-23T19:06:02Z</time>
      </trkpt>
      <trkpt lat="43.14608" lon="2.62332">
        <ele>566.3</ele>
        <time>2018-02-23T19:06:02Z</time>
      </trkpt>
      <trkpt lat="43.14618" lon="2.62602">
        <ele>583.4</ele>
        <time>2018-02-23T19:06:02Z</time>
      </trkpt>
      <trkpt lat="43.14727" lon="2.6273">
        <ele>591</ele>
        <time>2018-02-23T19:06:02Z</time>
      </trkpt>
      <trkpt lat="43.14784" lon="2.62845">
        <ele>586.7</ele>
        <time>2018-02-23T19:06:02Z</time>
      </trkpt>
      <trkpt lat="43.14581" lon="2.62687">
        <ele>585.8</ele>
        <time>2018-02-23T19:06:02Z</time>
      </trkpt>
      <trkpt lat="43.1442" lon="2.62629">
        <ele>579.1</ele>
        <time>2018-02-23T19:06:02Z</time>
      </trkpt>
      <trkpt lat="43.14233" lon="2.6265">
        <ele>574.8</ele>
        <time>2018-02-23T19:06:02Z</time>
      </trkpt>
      <trkpt lat="43.14097" lon="2.62734">
        <ele>540</ele>
        <time>2018-02-23T19:06:02Z</time>
      </trkpt>
      <trkpt lat="43.13988" lon="2.62833">
        <ele>516.7</ele>
        <time>2018-02-23T19:06:02Z</time>
      </trkpt>
      <trkpt lat="43.1392" lon="2.62819">
        <ele>514.8</ele>
        <time>2018-02-23T19:06:02Z</time>
      </trkpt>
      <trkpt lat="43.13749" lon="2.62527">
        <ele>474.8</ele>
        <time>2018-02-23T19:06:02Z</time>
      </trkpt>
      <trkpt lat="43.13469" lon="2.62269">
        <ele>455.8</ele>
        <time>2018-02-23T19:06:02Z</time>
      </trkpt>
      <trkpt lat="43.13386" lon="2.62127">
        <ele>434.2</ele>
        <time>2018-02-23T19:06:02Z</time>
      </trkpt>
      <trkpt lat="43.13235" lon="2.62034">
        <ele>433.1</ele>
        <time>2018-02-23T19:06:02Z</time>
      </trkpt>
      <trkpt lat="43.13189" lon="2.61941">
        <ele>427.7</ele>
        <time>2018-02-23T19:06:02Z</time>
      </trkpt>
      <trkpt lat="43.13085" lon="2.61877">
        <ele>417.6</ele>
        <time>2018-02-23T19:06:02Z</time>
      </trkpt>
      <trkpt lat="43.12992" lon="2.61578">
        <ele>370.7</ele>
        <time>2018-02-23T19:06:02Z</time>
      </trkpt>
      <trkpt lat="43.12872" lon="2.61414">
        <ele>294.4</ele>
        <time>2018-02-23T19:06:02Z</time>
      </trkpt>
      <trkpt lat="43.12764" lon="2.6125">
        <ele>227.5</ele>
        <time>2018-02-23T19:06:02Z</time>
      </trkpt>
      <trkpt lat="43.1267" lon="2.61256">
        <ele>221.3</ele>
        <time>2018-02-23T19:06:02Z</time>
      </trkpt>
      <trkpt lat="43.12628" lon="2.61356">
        <ele>187.2</ele>
        <time>2018-02-23T19:06:02Z</time>
      </trkpt>
      <trkpt lat="43.12643" lon="2.61569">
        <ele>176.9</ele>
        <time>2018-02-23T19:06:02Z</time>
      </trkpt>
      <trkpt lat="43.12465" lon="2.61866">
        <ele>139.1</ele>
        <time>2018-02-23T19:06:02Z</time>
      </trkpt>
      <trkpt lat="43.12345" lon="2.62285">
        <ele>131.8</ele>
        <time>2018-02-23T19:06:02Z</time>
      </trkpt>
      <trkpt lat="43.12001" lon="2.62418">
        <ele>106.1</ele>
        <time>2018-02-23T19:06:02Z</time>
      </trkpt>
      <trkpt lat="43.11886" lon="2.62382">
        <ele>101.2</ele>
        <time>2018-02-23T19:06:02Z</time>
      </trkpt>
      <trkpt lat="43.1184" lon="2.62084">
        <ele>113.1</ele>
        <time>2018-02-23T19:06:02Z</time>
      </trkpt>
      <trkpt lat="43.11654" lon="2.6182">
        <ele>115.5</ele>
        <time>2018-02-23T19:06:02Z</time>
      </trkpt>
      <trkpt lat="43.11528" lon="2.61919">
        <ele>114</ele>
        <time>2018-02-23T19:06:02Z</time>
      </trkpt>
      <trkpt lat="43.11362" lon="2.61875">
        <ele>116.3</ele>
        <time>2018-02-23T19:06:02Z</time>
      </trkpt>
      <trkpt lat="43.11274" lon="2.6224">
        <ele>118.5</ele>
        <time>2018-02-23T19:06:02Z</time>
      </trkpt>
      <trkpt lat="43.11244" lon="2.62419">
        <ele>117.5</ele>
        <time>2018-02-23T19:06:02Z</time>
      </trkpt>
      <trkpt lat="43.11252" lon="2.62653">
        <ele>121.5</ele>
        <time>2018-02-23T19:06:02Z</time>
      </trkpt>
      <trkpt lat="43.11222" lon="2.6281">
        <ele>114.2</ele>
        <time>2018-02-23T19:06:02Z</time>
      </trkpt>
      <trkpt lat="43.11203" lon="2.62881">
        <ele>112.3</ele>
        <time>2018-02-23T19:06:02Z</time>
      </trkpt>
      <trkpt lat="43.11101" lon="2.62903">
        <ele>105</ele>
        <time>2018-02-23T19:06:02Z</time>
      </trkpt>
      <trkpt lat="43.11117" lon="2.62997">
        <ele>110.9</ele>
        <time>2018-02-23T19:06:02Z</time>
      </trkpt>
      <trkpt lat="43.11088" lon="2.63094">
        <ele>112.6</ele>
        <time>2018-02-23T19:06:02Z</time>
      </trkpt>
      <trkpt lat="43.11138" lon="2.63171">
        <ele>111.5</ele>
        <time>2018-02-23T19:06:02Z</time>
      </trkpt>
      <trkpt lat="43.11081" lon="2.63305">
        <ele>99.6</ele>
        <time>2018-02-23T19:06:02Z</time>
      </trkpt>
      <trkpt lat="43.10976" lon="2.63384">
        <ele>94.3</ele>
        <time>2018-02-23T19:06:02Z</time>
      </trkpt>
      <trkpt lat="43.10928" lon="2.63376">
        <ele>92.1</ele>
        <time>2018-02-23T19:06:02Z</time>
      </trkpt>
      <trkpt lat="43.10841" lon="2.63301">
        <ele>89.7</ele>
        <time>2018-02-23T19:06:02Z</time>
      </trkpt>
      <trkpt lat="43.10799" lon="2.63264">
        <ele>89.6</ele>
        <time>2018-02-23T19:06:02Z</time>
      </trkpt>
      <trkpt lat="43.10755" lon="2.63295">
        <ele>89.5</ele>
        <time>2018-02-23T19:06:02Z</time>
      </trkpt>
      <trkpt lat="43.10761" lon="2.63446">
        <ele>93.8</ele>
        <time>2018-02-23T19:06:02Z</time>
      </trkpt>
      <trkpt lat="43.10723" lon="2.63446">
        <ele>98.5</ele>
        <time>2018-02-23T19:06:02Z</time>
      </trkpt>
      <trkpt lat="43.1069" lon="2.63389">
        <ele>102</ele>
        <time>2018-02-23T19:06:02Z</time>
      </trkpt>
      <trkpt lat="43.10675" lon="2.63457">
        <ele>105.4</ele>
        <time>2018-02-23T19:06:02Z</time>
      </trkpt>
      <trkpt lat="43.1063" lon="2.63311">
        <ele>107.8</ele>
        <time>2018-02-23T19:06:02Z</time>
      </trkpt>
      <trkpt lat="43.10546" lon="2.63277">
        <ele>118.2</ele>
        <time>2018-02-23T19:06:02Z</time>
      </trkpt>
      <trkpt lat="43.10421" lon="2.63367">
        <ele>136.3</ele>
        <time>2018-02-23T19:06:02Z</time>
      </trkpt>
      <trkpt lat="43.10445" lon="2.63476">
        <ele>134.3</ele>
        <time>2018-02-23T19:06:02Z</time>
      </trkpt>
      <trkpt lat="43.10397" lon="2.63629">
        <ele>130.3</ele>
        <time>2018-02-23T19:06:02Z</time>
      </trkpt>
      <trkpt lat="43.10365" lon="2.63681">
        <ele>131.3</ele>
        <time>2018-02-23T19:06:02Z</time>
      </trkpt>
      <trkpt lat="43.10288" lon="2.63689">
        <ele>141.5</ele>
        <time>2018-02-23T19:06:02Z</time>
      </trkpt>
      <trkpt lat="43.10351" lon="2.64214">
        <ele>155.8</ele>
        <time>2018-02-23T19:06:02Z</time>
      </trkpt>
      <trkpt lat="43.10261" lon="2.64373">
        <ele>170.3</ele>
        <time>2018-02-23T19:06:02Z</time>
      </trkpt>
      <trkpt lat="43.10163" lon="2.64432">
        <ele>179.4</ele>
        <time>2018-02-23T19:06:02Z</time>
      </trkpt>
      <trkpt lat="43.10041" lon="2.64514">
        <ele>198.5</ele>
        <time>2018-02-23T19:06:02Z</time>
      </trkpt>
      <trkpt lat="43.09887" lon="2.6447">
        <ele>205.9</ele>
        <time>2018-02-23T19:06:02Z</time>
      </trkpt>
      <trkpt lat="43.09822" lon="2.64376">
        <ele>223.4</ele>
        <time>2018-02-23T19:06:02Z</time>
      </trkpt>
      <trkpt lat="43.09764" lon="2.6427">
        <ele>232.1</ele>
        <time>2018-02-23T19:06:02Z</time>
      </trkpt>
      <trkpt lat="43.09706" lon="2.64219">
        <ele>233.4</ele>
        <time>2018-02-23T19:06:02Z</time>
      </trkpt>
      <trkpt lat="43.09591" lon="2.64056">
        <ele>247.9</ele>
        <time>2018-02-23T19:06:02Z</time>
      </trkpt>
      <trkpt lat="43.09548" lon="2.64007">
        <ele>251.2</ele>
        <time>2018-02-23T19:06:02Z</time>
      </trkpt>
      <trkpt lat="43.09487" lon="2.64018">
        <ele>246.1</ele>
        <time>2018-02-23T19:06:02Z</time>
      </trkpt>
      <trkpt lat="43.09391" lon="2.63935">
        <ele>241.4</ele>
        <time>2018-02-23T19:06:02Z</time>
      </trkpt>
      <trkpt lat="43.09339" lon="2.63932">
        <ele>237.6</ele>
        <time>2018-02-23T19:06:02Z</time>
      </trkpt>
      <trkpt lat="43.09217" lon="2.64059">
        <ele>249.4</ele>
        <time>2018-02-23T19:06:02Z</time>
      </trkpt>
      <trkpt lat="43.09152" lon="2.64164">
        <ele>243.3</ele>
        <time>2018-02-23T19:06:02Z</time>
      </trkpt>
      <trkpt lat="43.09127" lon="2.64221">
        <ele>238.5</ele>
        <time>2018-02-23T19:06:02Z</time>
      </trkpt>
      <trkpt lat="43.09058" lon="2.64164">
        <ele>230</ele>
        <time>2018-02-23T19:06:02Z</time>
      </trkpt>
      <trkpt lat="43.08975" lon="2.64078">
        <ele>221.2</ele>
        <time>2018-02-23T19:06:02Z</time>
      </trkpt>
      <trkpt lat="43.08804" lon="2.63997">
        <ele>215.3</ele>
        <time>2018-02-23T19:06:02Z</time>
      </trkpt>
      <trkpt lat="43.08777" lon="2.63943">
        <ele>208.2</ele>
        <time>2018-02-23T19:06:02Z</time>
      </trkpt>
      <trkpt lat="43.08719" lon="2.63903">
        <ele>201.2</ele>
        <time>2018-02-23T19:06:02Z</time>
      </trkpt>
      <trkpt lat="43.0866" lon="2.63959">
        <ele>199.9</ele>
        <time>2018-02-23T19:06:02Z</time>
      </trkpt>
      <trkpt lat="43.08574" lon="2.63973">
        <ele>187.3</ele>
        <time>2018-02-23T19:06:02Z</time>
      </trkpt>
      <trkpt lat="43.08468" lon="2.63884">
        <ele>170</ele>
        <time>2018-02-23T19:06:02Z</time>
      </trkpt>
      <trkpt lat="43.08538" lon="2.63645">
        <ele>191.5</ele>
        <time>2018-02-23T19:06:02Z</time>
      </trkpt>
      <trkpt lat="43.08488" lon="2.63534">
        <ele>197.2</ele>
        <time>2018-02-23T19:06:02Z</time>
      </trkpt>
      <trkpt lat="43.08428" lon="2.63368">
        <ele>205.4</ele>
        <time>2018-02-23T19:06:02Z</time>
      </trkpt>
      <trkpt lat="43.08453" lon="2.63274">
        <ele>212.3</ele>
        <time>2018-02-23T19:06:02Z</time>
      </trkpt>
      <trkpt lat="43.08443" lon="2.63269">
        <ele>211.9</ele>
        <time>2018-02-23T19:06:02Z</time>
      </trkpt>
      <trkpt lat="43.08439" lon="2.632">
        <ele>214.9</ele>
        <time>2018-02-23T19:06:02Z</time>
      </trkpt>
      <trkpt lat="43.08441" lon="2.63123">
        <ele>218.4</ele>
        <time>2018-02-23T19:06:02Z</time>
      </trkpt>
      <trkpt lat="43.08506" lon="2.63007">
        <ele>230.2</ele>
        <time>2018-02-23T19:06:02Z</time>
      </trkpt>
      <trkpt lat="43.08475" lon="2.62819">
        <ele>238.9</ele>
        <time>2018-02-23T19:06:02Z</time>
      </trkpt>
      <trkpt lat="43.08329" lon="2.6267">
        <ele>238.5</ele>
        <time>2018-02-23T19:06:02Z</time>
      </trkpt>
      <trkpt lat="43.08229" lon="2.62578">
        <ele>238.4</ele>
        <time>2018-02-23T19:06:02Z</time>
      </trkpt>
      <trkpt lat="43.08156" lon="2.62529">
        <ele>238.1</ele>
        <time>2018-02-23T19:06:02Z</time>
      </trkpt>
      <trkpt lat="43.08062" lon="2.62569">
        <ele>232.8</ele>
        <time>2018-02-23T19:06:02Z</time>
      </trkpt>
      <trkpt lat="43.08023" lon="2.62557">
        <ele>231.6</ele>
        <time>2018-02-23T19:06:02Z</time>
      </trkpt>
      <trkpt lat="43.08006" lon="2.62525">
        <ele>231.7</ele>
        <time>2018-02-23T19:06:02Z</time>
      </trkpt>
      <trkpt lat="43.08121" lon="2.6248">
        <ele>239.4</ele>
        <time>2018-02-23T19:06:02Z</time>
      </trkpt>
      <trkpt lat="43.08288" lon="2.62467">
        <ele>257.3</ele>
        <time>2018-02-23T19:06:02Z</time>
      </trkpt>
      <trkpt lat="43.08472" lon="2.62568">
        <ele>266.1</ele>
        <time>2018-02-23T19:06:02Z</time>
      </trkpt>
      <trkpt lat="43.08605" lon="2.62631">
        <ele>256.6</ele>
        <time>2018-02-23T19:06:02Z</time>
      </trkpt>
      <trkpt lat="43.0863" lon="2.62611">
        <ele>247.2</ele>
        <time>2018-02-23T19:06:02Z</time>
      </trkpt>
      <trkpt lat="43.08637" lon="2.62569">
        <ele>235.2</ele>
        <time>2018-02-23T19:06:02Z</time>
      </trkpt>
      <trkpt lat="43.08608" lon="2.62429">
        <ele>214.8</ele>
        <time>2018-02-23T19:06:02Z</time>
      </trkpt>
      <trkpt lat="43.08625" lon="2.62415">
        <ele>207.2</ele>
        <time>2018-02-23T19:06:02Z</time>
      </trkpt>
      <trkpt lat="43.08635" lon="2.62278">
        <ele>185.4</ele>
        <time>2018-02-23T19:06:02Z</time>
      </trkpt>
      <trkpt lat="43.08756" lon="2.62375">
        <ele>168.2</ele>
        <time>2018-02-23T19:06:02Z</time>
      </trkpt>
      <trkpt lat="43.08786" lon="2.62256">
        <ele>154.2</ele>
        <time>2018-02-23T19:06:02Z</time>
      </trkpt>
      <trkpt lat="43.08859" lon="2.62071">
        <ele>137.9</ele>
        <time>2018-02-23T19:06:02Z</time>
      </trkpt>
      <trkpt lat="43.08912" lon="2.62014">
        <ele>136.5</ele>
        <time>2018-02-23T19:06:02Z</time>
      </trkpt>
      <trkpt lat="43.09058" lon="2.62061">
        <ele>129.5</ele>
        <time>2018-02-23T19:06:02Z</time>
      </trkpt>
      <trkpt lat="43.09133" lon="2.62072">
        <ele>128.3</ele>
        <time>2018-02-23T19:06:02Z</time>
      </trkpt>
      <trkpt lat="43.09144" lon="2.62084">
        <ele>128.3</ele>
        <time>2018-02-23T19:06:02Z</time>
      </trkpt>
      <trkpt lat="43.09159" lon="2.61921">
        <ele>124.5</ele>
        <time>2018-02-23T19:06:02Z</time>
      </trkpt>
      <trkpt lat="43.09125" lon="2.61896">
        <ele>125.5</ele>
        <time>2018-02-23T19:06:02Z</time>
      </trkpt>
      <trkpt lat="43.0915" lon="2.61879">
        <ele>124.4</ele>
        <time>2018-02-23T19:06:02Z</time>
      </trkpt>
      <trkpt lat="43.09221" lon="2.61882">
        <ele>121.7</ele>
        <time>2018-02-23T19:06:02Z</time>
      </trkpt>
    </trkseg>
  </trk>
</gpx>